Location: *
(49.4547°N, 7.9131°E)
Time: 15:21:58
(UTC+00:00)

Cosmos 1626 Rocket - Pass Details

Date: 22 September 2019
Orbit: 602 x 632 km, 82.5° (Epoch: 17 October)

Event Time Altitude Azimuth Distance (km) Brightness Sun altitude
Rises 19:59:41 0° 345° (NNW) 2,869 7.7 -24.4°
Reaches altitude 10° 20:01:58 10° 339° (NNW) 1,960 6.8 -24.7°
Maximum altitude 20:06:06 45° 267° (W) 828 4.4 -25.2°
Enters shadow 20:07:11 37° 227° (SW) 948 4.5 -25.4°
